Tracking 19484 objects as of 19-Jan-2019
HD Live streaming from Space Station
objects crossing your sky now

COSMOS 2154

Track COSMOS 2154 now!
10-day predictions
COSMOS 2154 is classified as:


NORAD ID: 21666
Int'l Code: 1991-059A
Perigee: 976.4 km
Apogee: 1,013.3 km
Inclination: 82.9 °
Period: 104.9 minutes
Semi major axis: 7365 km
RCS: 2.347 m2 (large)
Launch date: August 22, 1991
Source: Commonwealth of Independent States (former USSR) (CIS)
Launch site: PLESETSK MISSILE AND SPACE COMPLEX (PKMTR)
aabbcc
Your satellite tracking list
Your tracking list is empty




NASA's NSSDC Master Catalog

Two Line Element Set (TLE):
1 21666U 91059A   19017.92176878  .00000004  00000-0 -12328-4 0  9996
2 21666  82.9085 319.5431 0025020 174.8121 246.7476 13.73316190373513
Source of the keplerian elements: AFSPC